Lapse_Rate
7.3 6.7 6.9 7.0 6.7 6.5 6.0 5.6 5.8 5.4 5.1 5.0 5.4 5.5 5.8 5.9 6.0 5.8 5.9 5.8 5.9 6.0 5.9 5.9 5.7 5.7 5.8 5.9 6.0 5.8 5.8 5.9 5.7 5.5 5.3 5.2 5.1 5.1 5.1 4.7 4.8 4.7 4.7
7.2 6.8 7.1 7.1 7.1 6.5 6.2 6.0 5.9 5.5 5.6 5.6 5.6 5.9 6.1 6.0 5.8 5.8 5.8 5.9 5.8 5.9 5.9 5.8 5.7 5.7 5.8 5.9 6.0 6.0 5.9 5.8 5.7 5.6 5.5 5.3 5.3 5.1 5.0 4.9 4.9 4.7 4.7
7.2 7.1 7.2 7.1 7.2 6.8 6.5 6.3 6.0 5.7 5.5 5.5 5.7 5.7 5.6 5.9 6.3 6.0 5.8 5.9 5.8 5.8 5.8 5.8 5.7 5.7 5.9 5.9 5.9 6.0 5.9 5.8 5.7 5.4 5.2 5.4 5.2 5.1 5.2 5.0 4.9 4.6 4.5
7.9 7.5 7.3 7.4 7.2 7.0 6.6 6.2 6.1 5.8 5.4 5.5 5.5 5.5 5.5 5.7 5.8 5.9 6.1 6.2 6.0 5.9 5.8 5.7 5.7 5.7 5.9 5.9 5.8 5.8 5.7 5.8 5.7 5.4 5.2 5.3 5.3 5.2 5.1 5.2 5.1 4.8 4.6
8.0 8.0 7.6 7.5 7.5 7.2 6.8 6.3 6.3 6.3 5.7 5.3 5.2 5.4 5.5 5.8 6.0 5.9 5.9 5.9 6.0 6.0 5.9 5.8 5.8 5.8 5.9 6.0 6.0 5.8 5.8 5.8 5.8 5.7 5.4 5.4 5.3 5.1 5.0 5.0 5.0 4.8 4.8
7.7 8.1 7.9 7.7 7.7 7.6 7.2 6.9 6.6 6.4 6.6 6.0 5.6 5.5 5.4 5.3 5.8 6.1 5.9 5.9 5.8 5.9 5.9 6.1 6.0 6.0 6.0 6.0 5.9 5.8 5.7 5.6 5.5 5.5 5.4 5.4 5.4 5.2 4.8 5.0 4.9 5.1 4.8
7.7 8.2 7.8 7.9 7.4 7.4 7.5 7.1 7.0 6.8 6.5 6.9 6.4 6.1 5.7 5.8 5.6 5.8 5.8 5.8 5.7 5.6 5.8 5.7 6.0 6.1 5.9 5.9 5.9 5.8 5.7 5.6 5.6 5.6 5.6 5.5 5.4 5.2 4.9 5.1 5.1 4.9 4.7
7.5 7.5 7.7 7.9 7.6 7.5 7.3 7.3 7.4 7.1 6.8 6.5 6.7 6.6 6.1 5.9 5.9 5.9 5.9 5.5 5.5 5.3 5.5 5.7 5.7 5.9 6.0 5.9 5.9 5.8 5.6 5.6 5.6 5.5 5.5 5.4 5.4 5.3 5.2 5.1 4.8 4.9 4.5
7.5 7.4 7.4 7.5 7.2 7.3 7.0 7.2 7.3 7.2 7.2 6.9 6.9 6.7 6.2 6.1 5.9 5.9 5.8 5.6 5.4 5.6 5.6 5.6 5.8 5.8 5.9 6.1 6.1 6.0 6.0 5.8 5.8 5.8 5.7 5.6 5.6 5.6 5.5 5.3 5.1 5.0 5.1
7.4 7.2 7.2 7.4 7.5 7.3 7.2 7.3 7.5 7.2 7.1 7.2 7.1 6.8 6.2 6.3 5.9 5.8 5.8 5.8 5.7 5.6 5.8 6.0 5.9 6.0 6.1 5.9 5.8 5.8 5.8 6.0 5.9 5.9 6.0 6.0 6.0 6.0 6.0 6.0 6.0 5.9 5.4
7.2 7.1 7.2 7.3 7.3 7.1 7.1 7.0 7.2 7.2 7.0 7.2 7.3 7.0 6.5 6.4 6.1 6.0 5.9 5.6 5.6 5.8 5.9 6.0 6.1 5.9 5.8 5.9 5.7 5.8 5.9 6.1 6.1 6.3 6.2 6.2 6.1 6.2 6.1 6.0 6.0 6.0 5.8
7.2 7.1 7.2 7.2 7.1 7.0 6.9 6.9 6.8 6.9 6.9 6.6 6.8 6.8 6.7 6.4 6.3 6.2 6.2 6.0 5.8 5.7 5.8 5.8 6.2 6.1 5.8 5.7 5.7 5.5 5.6 5.5 5.7 5.9 6.1 6.2 6.2 6.2 6.1 6.0 5.9 5.8 5.3
7.3 7.3 7.3 7.3 7.1 7.1 7.0 6.8 6.6 6.5 6.3 6.2 6.1 6.3 6.4 6.4 6.4 6.6 6.5 6.5 6.3 6.1 5.8 6.2 6.3 6.3 6.2 5.9 5.7 6.1 5.8 5.7 5.6 5.7 5.6 5.7 5.7 5.6 6.0 5.9 5.8 5.8 5.5
7.4 7.3 7.3 7.1 7.0 7.0 7.0 6.8 6.6 6.5 6.2 6.0 5.9 6.1 5.9 6.0 6.4 6.6 6.6 6.7 6.6 6.4 6.4 6.6 6.5 6.7 6.7 6.6 6.2 6.0 6.0 6.0 5.9 5.7 5.6 5.4 5.5 5.7 5.9 5.5 5.8 6.0 5.9
6.8 6.9 7.1 7.1 7.0 7.0 6.7 6.8 6.7 6.4 6.3 6.2 5.9 6.1 6.0 6.1 5.9 6.2 6.5 6.8 6.8 6.4 6.1 6.3 6.6 6.6 6.5 6.4 6.2 5.8 6.0 5.8 5.7 5.7 5.6 5.4 5.2 5.3 5.9 5.9 5.9 5.9 5.9
6.9 6.8 6.9 7.0 6.9 6.7 6.6 6.8 6.6 6.4 6.3 5.9 5.7 5.6 5.4 5.7 6.1 6.4 6.6 6.6 6.7 6.9 7.1 7.0 6.8 6.5 6.0 6.1 5.9 5.9 5.6 5.5 5.7 5.6 5.4 5.8 5.5 5.2 5.2 5.6 5.5 5.3 5.4
6.8 6.8 6.9 6.8 6.7 6.5 6.5 6.5 6.4 6.3 6.0 6.0 5.8 5.7 5.4 5.8 6.1 6.5 6.9 7.0 7.1 7.1 7.1 7.0 6.7 6.7 6.5 5.6 5.3 6.0 5.6 5.8 5.6 5.6 5.5 5.3 5.4 5.5 5.4 5.5 5.4 5.1 4.9
6.4 6.4 6.5 6.4 6.3 6.3 6.0 6.1 6.1 5.9 5.6 5.6 5.4 5.4 5.6 5.9 6.4 6.8 7.1 7.2 7.0 7.0 6.8 6.8 6.5 6.2 6.2 6.1 5.9 5.7 5.9 5.7 5.4 5.7 5.5 5.5 5.3 5.7 5.6 5.4 5.6 5.5 5.0
5.6 5.4 5.4 5.5 5.6 5.6 5.7 5.6 5.6 5.6 5.8 5.2 5.4 5.0 5.8 6.4 6.7 6.8 7.0 7.0 6.6 6.3 6.2 6.0 6.0 5.9 5.5 5.1 5.6 5.6 5.5 5.6 5.6 5.5 5.5 5.6 5.2 5.5 5.6 5.6 5.6 5.4 5.0
4.8 5.2 5.4 5.1 5.2 5.1 5.0 5.1 5.2 5.3 5.3 4.8 4.6 5.0 6.1 6.8 6.4 6.6 6.4 6.6 5.9 5.9 5.9 5.9 5.9 5.6 5.6 5.6 5.6 5.7 5.6 5.6 5.5 5.4 5.5 5.6 5.5 5.4 5.5 5.7 5.7 5.5 5.0
5.0 5.1 5.1 5.1 4.8 5.2 4.3 4.8 4.8 5.1 5.1 5.5 5.8 5.3 5.2 5.8 5.7 5.5 5.6 5.7 6.0 6.2 6.3 6.2 5.9 5.7 5.6 5.7 5.8 5.7 5.5 5.5 5.5 5.5 5.7 5.6 5.7 5.8 5.9 5.9 5.7 5.6 5.4
5.0 4.8 5.0 5.0 5.2 4.6 4.5 4.6 4.7 4.8 5.0 5.2 5.4 5.1 5.1 5.3 5.7 5.7 5.7 5.7 6.0 6.2 5.9 5.8 5.9 5.8 5.9 5.8 5.7 5.5 5.5 5.6 5.6 5.4 5.4 5.6 5.7 5.8 5.7 5.9 5.8 5.7 5.7
5.0 5.3 5.6 5.4 5.0 5.0 5.1 5.0 5.3 5.4 5.1 5.5 4.8 5.4 5.4 5.4 5.9 6.0 6.3 6.3 6.0 5.9 6.0 5.9 5.9 5.9 5.9 5.7 5.7 5.9 5.9 5.7 5.7 5.8 5.9 5.9 5.9 6.0 5.7 5.7 5.6 5.7 5.8
5.6 5.1 5.1 5.2 5.0 5.3 5.6 5.6 5.3 5.3 5.5 5.8 5.8 5.6 6.0 6.3 6.3 6.3 6.3 6.1 6.0 5.9 5.9 6.0 6.0 5.8 5.8 5.7 5.5 5.5 5.7 5.7 5.7 5.6 5.6 5.6 5.4 5.5 5.7 5.8 5.7 6.0 5.8
6.5 6.3 5.1 5.4 5.6 5.9 5.6 5.9 5.9 5.9 5.9 5.7 5.6 5.8 5.9 6.2 6.2 6.4 6.2 6.0 6.1 6.1 6.0 5.9 5.7 5.7 5.9 5.8 5.5 5.4 5.5 5.6 5.7 5.8 5.8 5.8 5.8 5.9 5.9 6.1 6.3 6.4 6.2
6.3 6.1 6.4 6.3 6.2 6.0 5.9 6.0 5.8 5.7 5.9 5.9 5.7 5.8 5.8 5.9 6.2 6.2 6.3 6.3 6.3 6.1 6.1 6.0 5.7 5.8 6.1 6.1 6.0 5.8 5.9 5.9 6.0 6.0 6.1 6.1 6.2 6.2 6.3 6.3 6.3 6.3 6.3
Wind_Speed
4 6 6 6 4 5 7 7 8 8 7 7 6 4 3 3 2 2 4 3 4 1 3 3 4 4 3 4 4 4 5 5 6 2 2 3 3 5 8 10 10 11 12
7 7 8 7 8 8 8 8 8 7 7 5 4 1 1 2 1 3 5 6 5 3 4 2 4 4 3 2 3 5 5 5 6 7 2 2 3 3 3 7 8 9 11
10 10 9 9 9 9 7 8 9 7 6 6 4 4 4 4 4 3 2 4 1 3 3 4 5 6 4 3 4 5 6 5 7 7 4 2 2 1 3 3 3 8 10
12 10 10 11 10 9 8 7 7 8 7 6 7 6 4 3 1 2 4 5 3 2 2 3 5 5 5 4 5 6 5 6 7 6 5 3 2 2 2 4 4 2 6
10 12 12 11 10 10 10 9 8 8 8 6 6 7 6 5 5 3 1 1 2 3 2 3 6 6 7 8 2 4 7 6 7 7 6 3 3 3 5 4 4 6 6
10 9 7 9 11 11 11 10 9 9 7 7 7 7 6 4 9 5 6 2 1 1 2 2 5 7 7 9 9 12 9 3 6 6 5 6 7 7 6 6 4 4 7
8 9 11 9 10 10 11 11 11 10 9 8 6 5 5 5 7 3 4 6 2 1 1 2 4 6 4 5 5 4 5 7 7 4 7 8 8 11 9 7 7 8 5
10 12 12 12 11 11 11 11 10 9 10 9 8 7 6 3 10 7 2 5 3 2 3 2 3 1 6 5 4 5 4 3 3 2 3 8 7 10 11 8 3 2 4
13 13 13 13 12 12 12 11 11 10 10 10 8 8 9 6 10 9 7 6 1 3 4 3 2 2 6 5 6 2 7 5 9 7 5 3 12 16 13 6 5 4 5
13 11 13 13 11 13 12 12 10 10 10 9 9 9 9 6 12 12 10 7 6 5 6 6 6 3 6 2 5 2 3 5 3 6 5 5 10 15 22 13 8 9 6
12 11 11 13 11 11 11 11 11 11 9 10 10 7 7 9 10 13 12 9 7 6 6 5 5 13 9 5 2 6 3 3 3 4 5 5 6 8 9 15 12 10 9
8 9 12 13 12 10 11 10 11 10 9 9 9 8 9 8 9 11 12 13 7 7 5 2 5 11 10 7 4 2 2 6 7 7 7 8 8 8 7 9 16 16 15
4 6 10 11 11 9 10 10 10 10 8 8 8 9 7 6 7 12 14 12 10 7 8 7 12 10 10 6 7 4 4 6 8 8 8 7 7 8 10 11 15 16 14
5 5 7 9 10 10 8 8 9 7 8 7 8 8 5 5 6 6 8 7 8 6 9 9 8 5 5 4 7 7 8 9 8 9 6 8 6 6 6 7 7 8 9
7 7 9 10 13 12 10 5 8 3 3 5 4 5 6 6 2 5 3 2 1 4 7 5 2 5 5 5 6 10 7 8 8 7 6 8 7 8 8 8 9 9 10
7 7 9 9 8 10 6 4 4 5 7 11 7 5 4 9 5 8 6 6 6 3 2 4 5 3 6 6 7 7 7 9 6 5 11 9 10 8 7 7 9 9 10
6 5 5 8 6 5 5 5 5 1 5 4 6 5 5 8 8 7 6 3 5 7 3 4 5 5 5 5 5 5 4 8 6 9 7 3 3 4 5 4 6 8 10
6 5 3 5 6 6 5 5 5 5 5 3 2 8 10 10 9 7 5 5 5 3 4 4 5 6 5 6 6 6 4 3 1 1 1 2 3 3 4 4 8 8 7
6 6 7 9 6 3 0 3 4 3 6 1 7 5 4 5 7 6 5 4 3 3 2 0 2 3 3 2 2 2 3 4 4 3 4 6 5 4 6 5 5 9 13
3 6 5 3 3 4 4 1 3 6 6 6 5 7 7 5 6 6 5 4 3 4 2 1 2 3 1 2 2 2 3 4 4 5 5 4 6 4 6 8 7 7 8
3 5 9 5 6 7 8 5 5 4 6 3 4 3 4 4 6 3 6 2 5 5 4 1 3 3 1 1 2 3 3 4 4 6 5 5 6 7 8 7 8 8 8
7 5 6 3 1 6 2 5 5 5 6 8 5 3 1 1 2 4 4 5 4 5 5 6 5 4 4 1 2 2 3 4 4 4 5 6 7 7 7 9 10 11 11
10 6 10 6 6 4 5 3 5 5 5 3 6 3 4 5 6 7 9 10 7 6 6 5 5 5 5 4 8 7 7 7 7 5 4 5 6 7 7 9 11 11 12
11 12 11 10 2 7 2 3 5 6 6 4 6 7 8 7 8 8 9 9 7 6 5 6 7 8 8 8 12 14 12 11 12 10 9 7 6 6 5 5 7 10 10
9 10 10 5 5 5 4 5 7 8 8 7 10 9 9 8 5 5 5 5 4 5 7 5 6 6 9 9 10 11 14 17 13 17 14 9 9 11 8 6 6 4 5
7 6 5 6 5 6 6 7 8 9 7 5 5 8 4 7 5 7 6 5 4 4 7 8 12 14 16 18 14 11 13 13 12 16 14 10 7 8 6 7 9 8 9
Wind_Direction
167 173 154 162 140 147 128 123 127 139 160 186 182 182 191 212 201 246 265 263 268 258 295 282 287 266 252 235 223 217 186 158 136 110 106 52 63 85 103 108 98 93 90
163 182 168 153 163 149 128 121 124 143 172 181 146 146 216 66 3 248 252 51 315 7 2 28 332 339 324 271 190 159 152 130 137 137 120 116 76 94 139 121 136 123 103
180 188 169 164 161 150 143 140 138 151 174 153 152 160 175 175 165 167 73 79 3 24 13 17 355 14 24 49 112 135 135 130 137 147 125 117 111 105 81 94 126 121 118
182 182 174 172 164 155 144 156 155 160 173 159 172 159 167 169 155 157 158 153 174 127 69 27 28 30 17 60 103 101 106 122 128 126 123 129 110 132 128 150 142 135 146
196 182 176 176 167 154 159 168 170 170 167 173 180 182 178 179 168 139 144 101 118 103 66 37 58 52 44 33 26 158 156 147 162 158 157 137 146 157 171 163 168 170 191
201 190 179 178 171 166 172 169 171 185 138 197 193 194 195 244 105 75 343 145 57 77 91 77 132 153 86 57 39 40 42 189 167 162 166 175 174 177 171 172 166 183 184
181 172 183 191 188 183 179 177 176 189 184 179 185 205 206 139 130 116 350 304 253 75 3 344 273 95 247 105 71 74 67 44 37 177 183 190 179 189 173 177 213 215 187
186 193 186 201 195 184 189 187 183 187 188 188 186 192 217 151 150 173 203 271 274 277 320 322 327 46 55 344 199 125 94 145 148 206 206 186 187 176 192 186 225 162 265
200 200 195 199 197 189 198 194 195 188 192 188 192 196 211 196 167 176 196 229 37 4 304 267 289 290 99 31 303 125 148 166 132 104 49 152 162 169 165 163 177 182 229
205 198 203 202 197 196 200 197 196 197 197 199 193 197 207 215 174 178 198 238 206 233 220 210 161 69 124 83 292 252 250 159 202 164 172 132 158 174 176 187 179 194 217
207 197 197 199 200 201 200 198 199 204 199 203 203 196 211 204 190 185 196 239 258 203 255 198 197 152 154 165 277 301 334 309 143 193 202 196 195 191 198 206 208 212 223
206 191 198 200 203 199 202 202 205 208 220 214 221 202 199 200 211 192 195 220 278 286 251 34 104 142 151 166 226 119 356 306 260 224 210 192 198 189 201 207 223 231 245
210 204 203 203 207 209 200 212 210 212 230 225 219 226 214 208 220 179 194 206 234 246 274 89 131 155 147 175 216 219 230 245 258 244 245 238 229 213 196 196 217 223 237
243 216 197 213 217 217 207 218 237 222 216 232 232 239 237 219 215 192 202 208 227 233 241 239 231 179 188 243 180 208 224 235 249 261 284 255 240 221 214 247 229 225 240
249 227 207 210 213 220 219 235 226 213 38 278 284 219 239 225 164 77 88 220 12 214 234 260 213 226 216 217 227 233 215 233 237 253 282 284 257 228 219 215 225 230 232
282 243 225 217 228 225 176 146 58 98 100 87 39 19 64 81 100 85 82 62 58 110 155 220 228 213 236 233 219 226 238 223 225 234 247 249 251 252 240 219 228 231 242
287 318 283 250 221 171 184 175 173 199 69 107 96 296 47 124 115 113 105 103 129 146 219 213 232 233 230 240 235 251 225 244 224 244 250 268 301 316 311 269 232 231 230
13 353 258 243 212 184 179 173 159 162 186 189 133 232 198 153 139 133 157 191 195 209 228 248 249 241 235 236 237 235 243 259 278 300 258 277 278 275 295 305 291 299 276
52 39 26 13 351 64 16 70 42 349 9 118 168 187 164 159 150 154 193 258 284 213 134 278 240 262 275 257 230 208 216 234 233 230 243 244 235 239 267 277 287 305 307
49 116 136 122 73 4 348 331 131 186 193 221 247 131 151 164 215 184 198 229 342 345 113 156 183 207 239 277 263 239 229 240 235 245 246 238 245 231 246 262 258 265 283
252 211 200 196 183 177 184 187 246 187 189 93 71 86 138 290 309 153 201 102 21 36 40 60 158 137 134 169 204 211 238 252 250 246 241 237 243 248 245 243 244 259 260
307 292 283 293 169 263 206 182 221 200 137 149 168 128 161 252 13 56 53 35 43 66 20 8 34 40 357 327 171 231 244 262 265 256 258 257 253 246 248 251 251 252 250
295 220 287 277 275 137 217 247 73 21 178 68 118 163 90 42 52 39 44 40 31 42 44 48 40 38 26 29 55 55 38 14 356 350 313 278 255 249 252 254 253 252 252
292 287 297 304 306 289 83 79 82 54 45 69 67 66 59 61 51 49 38 49 31 33 55 52 56 44 32 33 37 44 37 14 11 359 332 319 309 299 313 308 315 311 296
263 279 275 322 357 329 47 90 83 72 74 61 51 67 72 72 72 76 75 56 41 41 56 47 56 99 80 65 57 49 27 10 2 346 335 343 350 331 333 322 331 322 315
333 355 9 41 54 88 91 91 84 90 89 83 90 98 102 95 73 60 72 59 64 52 37 38 43 34 38 37 33 32 6 352 341 328 323 303 334 322 323 315 313 314 316